DW2770 Cefalu IT current weather conditions

sailwx.info

Wind from 045

Air temperature 12.8° C
Dewpoint 6.8° C

Last reported at 2015-Mar-04 03:39 UTC.
Time now 2015-Mar-04 04:21 UTC

Location: N 38°02' E 014°02'.
View on Google Maps.

See reports from other nearby stations

  
Tides and Currents Weather Stations Pressure Air Temp Water Temp Dewpoint Dewpoint Depression Visibility Wind Speed Wind Dir Waves Ship Positions
date/time (UTC)wind fromknots sea level pressurealtimeterstation pressurevisibilityair tempwater tempwave heightnotes
2015-Mar-04 03:39 045 12.8
2015-Mar-04 03:29 158 12.8
2015-Mar-04 03:19 068 12.8
2015-Mar-04 03:09 180 12.2
2015-Mar-04 02:59 125 12.2
2015-Mar-04 02:49 225 12.8
2015-Mar-04 02:39 159 12.8
2015-Mar-04 02:29 105 12.8
2015-Mar-04 02:19 068 0 gusting 1 13.3
2015-Mar-04 02:09 202 0 gusting 2 13.3
2015-Mar-04 01:59 193 13.9
2015-Mar-04 01:49 225 1 gusting 2 13.3
2015-Mar-04 01:39 202 1 gusting 2 13.3
2015-Mar-04 01:29 194 13.3
2015-Mar-04 01:19 180 13.3
2015-Mar-04 01:09 068 13.3
2015-Mar-04 00:59 180 13.3
2015-Mar-04 00:49 202 2 gusting 4 12.8
2015-Mar-04 00:39 180 2 gusting 4 12.8
2015-Mar-04 00:29 215 4 gusting 4 12.8
2015-Mar-04 00:19 248 1 gusting 4 12.8
2015-Mar-04 00:09 225 3 gusting 4 13.3
2015-Mar-03 23:59 217 4 gusting 4 13.3
2015-Mar-03 23:49 248 3 gusting 4 13.3
2015-Mar-03 23:39 248 2 gusting 2 13.9
2015-Mar-03 23:30 225 2 gusting 4 14.4
2015-Mar-03 23:20 248 4 gusting 4 15.6
2015-Mar-03 23:09 225 16.1
2015-Mar-03 23:00 202 1 gusting 2 16.1
2015-Mar-03 22:50 225 1 gusting 1 16.1
2015-Mar-03 22:40 201 0 gusting 1 15.6
2015-Mar-03 22:30 202 1 gusting 1 15.0
2015-Mar-03 22:20 135 15.6
2015-Mar-03 22:10 225 1 gusting 1 15.6
2015-Mar-03 22:00 202 14.4
2015-Mar-03 21:50 202 13.9
2015-Mar-03 21:40 068 14.4
2015-Mar-03 21:30 120 14.4
2015-Mar-03 21:20 180 15.0
2015-Mar-03 21:10 202 1 gusting 2 14.4
2015-Mar-03 21:00 202 0 gusting 2 13.9
2015-Mar-03 20:50 202 14.4
2015-Mar-03 20:40 202 1 gusting 2 13.9
2015-Mar-03 20:30 194 2 gusting 2 13.9
2015-Mar-03 20:20 202 1 gusting 2 13.9
2015-Mar-03 20:10 225 2 gusting 2 13.9
2015-Mar-03 20:00 110 14.4
2015-Mar-03 19:50 180 14.4
2015-Mar-03 19:40 180 1 gusting 1 14.4
2015-Mar-03 19:30 068 1 gusting 1 15.0
2015-Mar-03 19:20 225 15.0
2015-Mar-03 19:10 270 0 gusting 1 15.0
2015-Mar-03 19:00 248 15.0
2015-Mar-03 18:50 225 4 gusting 5 15.0
2015-Mar-03 18:40 202 2 gusting 5 15.0
2015-Mar-03 18:30 225 4 gusting 6 15.0
2015-Mar-03 18:20 248 2 gusting 4 15.0
2015-Mar-03 18:10 225 2 gusting 2 15.0
2015-Mar-03 18:00 225 2 gusting 7 15.0
2015-Mar-03 12:50 292 7 gusting 10 18.9
2015-Mar-03 12:40 315 10 gusting 11 18.9
2015-Mar-03 12:30 282 6 gusting 13 19.4
2015-Mar-03 12:20 248 6 gusting 7 19.4
2015-Mar-03 12:10 292 5 gusting 8 19.4
2015-Mar-03 12:00 283 8 gusting 10 19.4
2015-Mar-03 11:50 270 5 gusting 13 19.4
2015-Mar-03 11:40 248 6 gusting 10 18.9
2015-Mar-03 11:30 315 6 gusting 7 18.3
2015-Mar-03 11:20 270 4 gusting 10 18.3
2015-Mar-03 11:10 292 6 gusting 12 18.3
2015-Mar-03 11:00 177 4 gusting 8 18.3
2015-Mar-03 10:50 292 3 gusting 8 18.3
2015-Mar-03 10:40 225 6 gusting 7 18.9
2015-Mar-03 10:30 248 5 gusting 8 18.3
2015-Mar-03 10:20 316 5 gusting 11 18.3
2015-Mar-03 10:10 315 7 gusting 8 18.3
2015-Mar-03 10:00 256 4 gusting 15 18.3
2015-Mar-03 09:50 250 10 gusting 15 18.9
2015-Mar-03 09:40 270 7 gusting 15 18.9
2015-Mar-03 09:30 248 8 gusting 10 18.3
2015-Mar-03 09:20 256 5 gusting 10 18.3
2015-Mar-03 09:10 270 9 gusting 14 18.3
2015-Mar-03 09:00 260 7 gusting 13 18.3
2015-Mar-03 08:50 269 7 gusting 12 18.3
2015-Mar-03 08:40 270 6 gusting 13 17.8
2015-Mar-03 08:30 242 8 gusting 12 17.8
2015-Mar-03 08:20 182 8 gusting 11 17.8
2015-Mar-03 08:10 202 10 gusting 12 17.8
2015-Mar-03 08:00 254 9 gusting 12 17.8
2015-Mar-03 07:50 207 5 gusting 10 17.2
2015-Mar-03 07:40 225 6 gusting 13 17.2
2015-Mar-03 07:30 226 7 gusting 12 17.2
2015-Mar-03 07:20 248 11 gusting 14 17.2
2015-Mar-03 07:10 248 6 gusting 11 17.2
2015-Mar-03 07:00 241 6 gusting 12 17.2
2015-Mar-03 06:50 219 8 gusting 10 17.2
2015-Mar-03 06:40 202 13 gusting 14 17.2
2015-Mar-03 06:30 210 12 gusting 13 17.2
2015-Mar-03 06:20 232 7 gusting 8 16.7
2015-Mar-03 06:10 202 8 gusting 10 16.7
2015-Mar-03 06:00 225 6 gusting 8 15.6
2015-Mar-03 05:50 248 5 gusting 6 15.6
2015-Mar-03 05:40 292 3 gusting 7 15.6
2015-Mar-03 05:30 242 7 gusting 7 16.1
2015-Mar-03 05:20 329 4 gusting 6 16.1
2015-Mar-03 05:10 248 0 gusting 1 16.7
2015-Mar-03 05:00 248 2 gusting 10 17.2
2015-Mar-03 04:50 305 3 gusting 12 17.8
2015-Mar-03 04:40 225 6 gusting 10 18.3
2015-Mar-03 04:30 181 8 gusting 12 18.9
2015-Mar-03 04:20 246 2 gusting 10 18.9
2015-Mar-03 04:10 225 12 gusting 15 18.9
2015-Mar-03 04:00 248 2 gusting 13 18.9
2015-Mar-03 03:50 208 8 gusting 10 18.9
2015-Mar-03 03:40 225 10 gusting 13 19.4
2015-Mar-03 03:30 206 7 gusting 15 19.4
2015-Mar-03 03:20 248 12 gusting 15 19.4
2015-Mar-03 03:10 225 16 gusting 18 19.4
2015-Mar-03 03:00 202 13 gusting 14 18.9
2015-Mar-03 02:50 248 8 gusting 19 19.4
2015-Mar-03 02:40 202 14 gusting 19 19.4
2015-Mar-03 02:30 180 17 gusting 19 19.4
2015-Mar-03 02:20 225 18 gusting 18 19.4
2015-Mar-03 02:10 202 17 gusting 20 18.9
2015-Mar-03 01:50 180 12 gusting 14 18.9
2015-Mar-03 01:30 248 10 gusting 19 18.3
2015-Mar-03 01:20 225 12 gusting 13 18.3
2015-Mar-03 01:10 240 6 gusting 11 18.3
2015-Mar-03 01:00 248 13 gusting 14 18.3
2015-Mar-03 00:50 202 10 gusting 12 18.3
2015-Mar-03 00:40 230 8 gusting 14 18.9
2015-Mar-03 00:30 202 13 gusting 15 19.4
2015-Mar-03 00:20 225 10 gusting 13 18.9
2015-Mar-03 00:10 225 13 gusting 13 19.4
2015-Mar-03 00:00 224 8 gusting 15 20.0
2015-Mar-02 23:50 202 13 gusting 17 20.0
2015-Mar-02 23:40 234 16 gusting 17 20.0
2015-Mar-02 23:30 286 15 gusting 17 20.6
2015-Mar-02 23:20 248 10 gusting 14 20.6
2015-Mar-02 23:10 225 9 gusting 17 20.6
2015-Mar-02 23:00 247 15 gusting 17 20.6
2015-Mar-02 22:50 248 15 gusting 17 20.0
2015-Mar-02 22:40 244 15 gusting 17 20.0
2015-Mar-02 22:30 247 13 gusting 13 19.4
2015-Mar-02 22:20 202 14 gusting 19 19.4
2015-Mar-02 22:10 231 17 gusting 18 19.4
2015-Mar-02 22:00 180 14 gusting 15 18.9
2015-Mar-02 21:50 248 10 gusting 13 18.3
2015-Mar-02 21:40 237 8 gusting 13 18.9
2015-Mar-02 21:30 202 13 gusting 14 18.3
2015-Mar-02 21:20 248 14 gusting 15 18.3
2015-Mar-02 21:10 202 13 gusting 18 18.3
2015-Mar-02 21:00 270 15 gusting 17 18.3
2015-Mar-02 20:50 225 12 gusting 19 17.8
2015-Mar-02 20:40 235 17 gusting 19 17.8
2015-Mar-02 20:30 202 15 gusting 19 17.8
2015-Mar-02 20:20 202 17 gusting 19 17.8
2015-Mar-02 20:10 180 17 gusting 19 17.2
2015-Mar-02 20:00 225 14 gusting 20 17.2
2015-Mar-02 19:50 225 17 gusting 22 17.2
2015-Mar-02 19:40 248 17 gusting 19 17.2
2015-Mar-02 19:30 202 11 gusting 17 17.2
2015-Mar-02 19:20 216 13 gusting 20 17.2
2015-Mar-02 19:10 202 12 gusting 19 16.7
2015-Mar-02 19:00 237 18 gusting 19 16.7
2015-Mar-02 18:50 248 14 gusting 18 17.2
2015-Mar-02 18:40 248 17 gusting 19 17.2
2015-Mar-02 18:30 209 15 gusting 18 16.7
2015-Mar-02 18:20 248 15 gusting 15 16.7
2015-Mar-02 18:10 202 11 gusting 15 16.7
2015-Mar-02 18:00 209 11 gusting 14 16.7
2015-Mar-02 17:50 225 12 gusting 15 16.7
2015-Mar-02 17:40 225 15 gusting 15 16.7
2015-Mar-02 17:30 225 15 gusting 19 16.7
2015-Mar-02 17:20 225 13 gusting 18 16.1
2015-Mar-02 17:10 202 15 gusting 17 15.6
2015-Mar-02 17:00 216 6 gusting 12 14.4
2015-Mar-02 16:50 022 1 gusting 2 13.9
2015-Mar-02 16:40 225 1 gusting 1 13.9
2015-Mar-02 16:30 255 0 gusting 2 13.3
2015-Mar-02 16:20 315 0 gusting 2 13.3
2015-Mar-02 16:10 068 1 gusting 1 13.3
2015-Mar-02 16:00 055 13.3
2015-Mar-02 15:50 045 0 gusting 1 13.3
2015-Mar-02 15:40 045 2 gusting 2 13.3
2015-Mar-02 15:30 045 13.9
2015-Mar-02 15:20 068 0 gusting 2 13.3
2015-Mar-02 15:10 090 2 gusting 2 13.3
2015-Mar-02 15:00 056 0 gusting 2 13.9
2015-Mar-02 14:50 045 0 gusting 2 13.9
2015-Mar-02 14:40 068 1 gusting 2 13.9
2015-Mar-02 14:30 068 1 gusting 2 13.9
2015-Mar-02 14:20 068 1 gusting 4 13.9
2015-Mar-02 14:10 068 2 gusting 4 13.9
2015-Mar-02 14:00 041 4 gusting 4 13.3
2015-Mar-02 13:50 045 4 gusting 4 13.3
2015-Mar-02 13:40 045 3 gusting 4 13.9
2015-Mar-02 13:30 090 1 gusting 2 13.3
2015-Mar-02 13:20 045 1 gusting 2 13.3
2015-Mar-02 13:10 090 0 gusting 4 13.3
2015-Mar-02 13:00 058 4 gusting 4 13.9
2015-Mar-02 12:49 076 3 gusting 5 13.9
2015-Mar-02 12:39 090 1 gusting 6 13.9
2015-Mar-02 12:29 090 2 gusting 4 13.9
2015-Mar-02 12:19 068 2 gusting 2 14.4
2015-Mar-02 12:09 090 2 gusting 4 14.4
2015-Mar-02 11:59 112 0 gusting 1 14.4
2015-Mar-02 11:49 058 1 gusting 1 14.4
2015-Mar-02 11:39 111 0 gusting 0 13.9
2015-Mar-02 11:29 068 0 gusting 4 13.9
2015-Mar-02 11:19 055 2 gusting 2 13.3
2015-Mar-02 11:09 045 2 gusting 4 13.3
2015-Mar-02 10:59 068 4 gusting 4 13.9
2015-Mar-02 10:49 126 0 gusting 1 13.9
2015-Mar-02 10:39 045 1 gusting 1 13.9
2015-Mar-02 10:29 068 13.3
2015-Mar-02 10:19 045 1 gusting 5 13.3
2015-Mar-02 10:09 068 3 gusting 4 13.3
2015-Mar-02 09:59 045 1 gusting 4 13.3
2015-Mar-02 09:49 328 0 gusting 4 13.3
2015-Mar-02 09:39 313 0 gusting 4 13.3
2015-Mar-02 09:29 315 2 gusting 4 12.8
2015-Mar-02 09:19 252 2 gusting 2 12.8
2015-Mar-02 09:09 292 1 gusting 2 12.8
2015-Mar-02 08:59 338 0 gusting 2 12.2
2015-Mar-02 08:49 286 1 gusting 2 12.2
2015-Mar-02 08:39 248 2 gusting 2 12.2
2015-Mar-02 08:29 248 2 gusting 2 12.2
2015-Mar-02 08:19 068 0 gusting 2 12.2
2015-Mar-02 08:09 056 1 gusting 2 12.2
2015-Mar-02 07:59 270 0 gusting 0 11.7
2015-Mar-02 07:49 248 11.7
2015-Mar-02 07:39 225 0 gusting 1 11.7
2015-Mar-02 07:29 270 0 gusting 1 11.7
2015-Mar-02 07:19 264 1 gusting 1 11.1
2015-Mar-02 07:09 225 3 gusting 4 11.1
2015-Mar-02 06:59 202 1 gusting 2 11.1
2015-Mar-02 06:49 218 1 gusting 1 10.6
2015-Mar-02 06:39 202 10.0
2015-Mar-02 06:29 202 0 gusting 4 10.0
2015-Mar-02 06:19 202 4 gusting 5 10.0
2015-Mar-02 06:09 180 4 gusting 6 9.4
2015-Mar-02 05:59 180 4 gusting 6 9.4
2015-Mar-02 05:49 202 2 gusting 5 10.0
2015-Mar-02 05:39 202 2 gusting 4 10.0
2015-Mar-02 05:29 202 3 gusting 4 10.0
2015-Mar-02 05:19 180 2 gusting 4 9.4
2015-Mar-02 05:09 180 2 gusting 4 8.9
2015-Mar-02 04:59 158 2 gusting 4 9.4
2015-Mar-02 04:49 184 2 gusting 5 10.0
2015-Mar-02 04:39 202 5 gusting 6 10.0
2015-Mar-02 04:29 202 5 gusting 5 10.0
2015-Mar-02 04:19 188 4 gusting 6 10.0
2015-Mar-02 04:09 202 4 gusting 4 10.0